Lafayette, IN

9:03 AM EST on November 24, 2017 (GMT -0500)
Purdue Univ

Weather History for KLAF - March, 2013

Change the Weather History Date:

Monday, March 4, 2013

  Actual Average Record
Temperature  
Mean Temperature 28 °F 36 °F  
Max Temperature 37 °F 45 °F 77 °F (1983)
Min Temperature 18 °F 27 °F 3 °F (2002)
Degree Days  
Heating Degree Days 37 29  
Month to date heating degree days 146 118  
Since 1 July heating degree days 4481 4452  
Cooling Degree Days 0 0  
Month to date cooling degree days 0 0  
Year to date cooling degree days 0 0  
Moisture  
Dew Point 21 °F    
Average Humidity 68    
Maximum Humidity 84    
Minimum Humidity 52    
Precipitation  
Precipitation 0.01 in 0.09 in 1.05 in (1974)
Month to date precipitation 0.01 0.33  
Year to date precipitation 5.96 3.95  
Sea Level Pressure  
Sea Level Pressure 30.07 in    
Wind  
Wind Speed 9 mph (ESE)    
Max Wind Speed 17 mph    
Max Gust Speed 23 mph    
Visibility 9 miles    
Events Snow    
T = Trace of Precipitation, MM = Missing Value Source: NWS Daily Summary

Daily Weather History Graph

Daily Weather History Graph

Search for Another Location

Airport or City:

Trip Planner

Search our weather history database for the weather conditions in past years. The results will help you decide how hot, cold, wet, or windy it might be!

Date:

Astronomy

Mar. 04, 2013 Rise Set
Actual Time 7:16 AM EST 6:42 PM EST
Civil Twilight 6:49 AM EST 7:10 PM EST
Nautical Twilight 6:17 AM EST 7:41 PM EST
Astronomical Twilight 5:46 AM EST 8:13 PM EST
Moon 1:26 AM EST (3/4) 11:23 AM EST (3/4)
Length of Visible Light 12h 21m
Length of Day
11h 26m
Waning Gibbous, 52% of the Moon is Illuminated
Mar 4
Waning Gibbous
Mar 4
Last Quarter
Mar 11
New
Mar 19
First Quarter
Mar 27
Full

Hourly Weather History & Observations

Time (EST) Temp. Windchill Dew Point Humidity Pressure Visibility Wind Dir Wind Speed Gust Speed Precip Events Conditions
12:54 AM 21.0 °F - 16.0 °F 81% 30.12 in 10.0 mi Calm Calm - N/A   Clear
1:54 AM 19.0 °F - 16.0 °F 88% 30.14 in 10.0 mi Calm Calm - N/A   Clear
2:54 AM 19.0 °F - 16.0 °F 88% 30.14 in 10.0 mi Calm Calm - N/A   Clear
3:54 AM 19.0 °F - 16.0 °F 88% 30.14 in 10.0 mi Calm Calm - N/A   Clear
4:54 AM 19.0 °F - 15.1 °F 85% 30.14 in 10.0 mi Calm Calm - N/A   Clear
5:54 AM 21.0 °F 12.4 °F 16.0 °F 81% 30.14 in 10.0 mi East 6.9 mph - N/A   Clear
6:54 AM 19.9 °F 11.1 °F 16.0 °F 85% 30.14 in 10.0 mi East 6.9 mph - N/A   Clear
7:54 AM 21.9 °F 13.4 °F 18.0 °F 85% 30.15 in 10.0 mi East 6.9 mph - N/A   Clear
8:54 AM 26.1 °F 17.6 °F 19.0 °F 75% 30.15 in 10.0 mi ESE 8.1 mph - N/A   Clear
9:54 AM 28.9 °F 21.9 °F 21.0 °F 72% 30.14 in 10.0 mi SE 6.9 mph - N/A   Clear
10:54 AM 32.0 °F 23.0 °F 21.0 °F 64% 30.12 in 10.0 mi ESE 11.5 mph - N/A   Clear
11:54 AM 34.0 °F 25.0 °F 19.9 °F 56% 30.09 in 10.0 mi ESE 12.7 mph - N/A   Mostly Cloudy
12:54 PM 35.1 °F 27.4 °F 19.0 °F 52% 30.08 in 10.0 mi SE 10.4 mph - N/A   Overcast
1:54 PM 36.0 °F 27.5 °F 19.9 °F 52% 30.05 in 10.0 mi ESE 12.7 mph - N/A   Overcast
2:54 PM 36.0 °F 27.1 °F 19.0 °F 50% 30.03 in 10.0 mi ESE 13.8 mph - N/A   Overcast
3:29 PM 33.8 °F 25.3 °F 23.0 °F 65% 30.01 in 2.0 mi SE 11.5 mph - 0.00 in Snow Light Snow
3:54 PM 33.1 °F 26.1 °F 26.1 °F 75% 30.02 in 2.5 mi ESE 8.1 mph - 0.00 in Snow Light Snow
4:01 PM 33.8 °F 25.3 °F 26.6 °F 75% 30.00 in 3.0 mi ESE 11.5 mph - 0.00 in Snow Light Snow
4:54 PM 33.1 °F 24.9 °F 28.0 °F 82% 30.00 in 10.0 mi East 10.4 mph - 0.01 in   Overcast
5:54 PM 33.1 °F 23.9 °F 27.0 °F 78% 30.00 in 10.0 mi East 12.7 mph - N/A   Overcast
6:54 PM 33.1 °F 23.9 °F 26.1 °F 75% 30.00 in 10.0 mi East 12.7 mph - N/A   Overcast
7:54 PM 34.0 °F 24.6 °F 25.0 °F 70% 30.01 in 10.0 mi East 13.8 mph - N/A   Overcast
8:54 PM 34.0 °F 25.5 °F 26.1 °F 73% 30.03 in 10.0 mi East 11.5 mph - N/A   Overcast
9:54 PM 34.0 °F 25.5 °F 26.1 °F 73% 30.03 in 10.0 mi East 11.5 mph - N/A   Overcast
10:54 PM 34.0 °F 25.0 °F 26.1 °F 73% 30.01 in 10.0 mi ESE 12.7 mph - N/A   Overcast
11:54 PM 35.1 °F 25.9 °F 26.1 °F 70% 29.99 in 10.0 mi East 13.8 mph 21.9 mph N/A   Overcast